Location: Erlenbrunn
(49.1717°N, 7.6142°E)
Time: 13:09:40
(UTC+00:00)

USA 281 - Pass Details

Date: 25 November 2020
Orbit: 1074 x 1084 km, 106.0° (Epoch: 22 January)

Event Time Altitude Azimuth Distance (km) Brightness Sun altitude
Rises 17:04:01 0° 133° (SE) 3,875 5.8 -13.7°
Reaches altitude 10° 17:06:35 10° 129° (SE) 2,921 5.2 -14.1°
Maximum altitude 17:12:54 53° 55° (NE) 1,314 3.3 -15.1°
Drops below altitude 10° 17:19:15 10° 341° (NNW) 2,929 5.6 -16.1°
Sets 17:21:49 0° 337° (NNW) 3,887 6.3 -16.5°
